DateTimeUTC,F1_A11,F1_S11,BsB_S11,BsG_S11,BsR_S11,BbsB_S11,BbsG_S11,BbsR_S11,BaB_A11,BaG_A11,BaR_A11,Tu_S11,T_S11,Uu_S11,U_S11,P_S11,T1_A11
2021-08-18T09:00:00Z,00000200,20000000,,,,,,,-000.11,0000.00,0000.35,18.4,25.2,06.7,04.4,0677.9,30.9
2021-08-18T09:01:00Z,00000200,20000000,,,,,,,0000.20,-000.29,-000.19,18.4,25.2,06.7,04.4,0677.9,30.9
2021-08-18T09:02:00Z,00000200,20000000,,,,,,,0000.14,0000.16,0000.16,18.4,25.2,06.7,04.4,0677.9,30.9
2021-08-18T09:03:00Z,00000200,60000000,,,,,,,0000.11,0000.15,0000.42,18.4,25.2,06.7,04.4,0677.9,30.9
2021-08-18T09:04:00Z,00000200,40000000,0002.00,0001.17,0000.55,0000.03,0000.22,0000.15,0000.46,0000.45,-000.22,18.6,25.0,06.7,04.5,0678.8,30.9
2021-08-18T09:05:00Z,00000200,00000000,0002.05,0000.48,0000.74,-000.03,-000.08,0000.17,0000.61,0000.38,0000.41,18.7,25.0,06.7,04.6,0678.9,30.9
2021-08-18T09:06:00Z,00000200,00000000,0001.39,0000.83,0000.59,0000.07,0000.19,0000.21,-000.19,-000.18,0000.13,18.7,25.0,06.8,04.6,0678.8,30.9
2021-08-18T09:07:00Z,00000200,00000000,0001.73,0001.15,0000.61,0000.50,0000.35,0000.20,0000.64,0000.52,0000.00,18.7,25.0,06.8,04.6,0678.8,30.9
2021-08-18T09:08:00Z,00000200,00000000,0001.15,0000.83,0000.68,0000.35,-000.08,0000.26,0000.07,0000.40,0000.57,18.7,25.0,06.8,04.6,0678.8,30.9
2021-08-18T09:09:00Z,00000200,00000000,0001.45,0001.27,0000.33,0000.32,0000.20,-000.18,0000.27,0000.20,0000.07,18.7,25.0,06.9,04.7,0678.8,30.9
2021-08-18T09:10:00Z,00000200,00000000,0001.36,0000.69,0000.45,-000.05,0000.41,0000.03,0000.28,-000.01,0000.13,18.7,25.0,06.9,04.7,0678.7,31.0
2021-08-18T09:11:00Z,00000200,00000000,0001.79,0000.94,0000.71,0000.13,0000.13,0000.46,0000.22,0000.31,0000.06,18.7,25.0,07.0,04.8,0678.7,30.9
2021-08-18T09:12:00Z,00000200,00000000,0001.71,0001.09,0000.37,0000.20,0000.26,0000.08,0000.14,0000.53,0000.02,18.7,25.0,07.0,04.8,0678.7,30.9
2021-08-18T09:13:00Z,00000200,00000000,0001.72,0001.18,0000.57,0000.23,-000.06,0000.10,0000.37,0000.00,0000.47,18.7,25.0,07.0,04.8,0678.7,30.9
2021-08-18T09:14:00Z,00000200,00000000,0001.64,0000.80,0000.44,-000.20,0000.06,0000.19,0000.16,0000.51,0000.04,18.7,25.0,07.0,04.8,0678.7,31.0
2021-08-18T09:15:00Z,00000200,00000000,0001.63,0001.00,0000.25,0000.38,0000.39,-000.07,0000.27,-000.11,0000.42,18.7,25.0,07.1,04.9,0678.6,30.9
2021-08-18T09:16:00Z,00000200,00000000,0001.49,0000.81,0000.50,0000.43,0000.10,-000.12,0000.26,0000.22,-000.11,18.7,25.0,07.1,04.9,0678.6,31.0
2021-08-18T09:17:00Z,00000200,00000000,0001.95,0000.82,0000.19,0000.01,0000.12,0000.02,0000.38,0000.29,0000.38,18.7,25.0,07.0,04.8,0678.6,30.9
2021-08-18T09:18:00Z,00000200,00000000,0001.22,0000.47,0000.48,0000.13,0000.13,0000.19,0000.22,0000.32,0000.20,18.7,25.0,07.2,04.9,0678.6,31.0
2021-08-18T09:19:00Z,00000200,00000000,0001.60,0000.52,0000.37,0000.61,0000.04,-000.13,0000.40,0000.47,0000.26,18.8,25.0,07.2,04.9,0678.6,30.9
2021-08-18T09:20:00Z,00000200,00000000,0001.46,0000.76,0000.32,0000.55,0000.08,0000.33,0000.27,0000.15,0000.09,18.8,25.0,07.4,05.0,0678.6,30.9
2021-08-18T09:21:00Z,00000200,00000000,0001.06,0001.13,0000.16,0000.08,-000.01,0000.00,0000.47,0000.50,0000.37,18.8,25.0,07.4,05.1,0678.6,30.9
2021-08-18T09:22:00Z,00000200,00000000,0001.05,0000.92,0000.28,0000.13,-000.22,-000.00,0000.16,0000.21,0000.03,18.8,25.0,07.5,05.1,0678.6,30.9
2021-08-18T09:23:00Z,00000200,00000000,0001.37,0001.03,0000.94,-000.18,-000.10,0000.20,0000.47,0000.81,0000.72,18.8,25.0,07.6,05.2,0678.6,30.9
2021-08-18T09:24:00Z,00000200,00000000,0000.99,0000.73,0000.09,-000.24,0000.03,-000.05,0000.32,-000.17,-000.08,18.8,25.0,07.7,05.3,0678.6,31.0
2021-08-18T09:25:00Z,00000200,00000000,0001.28,0000.87,0000.41,-000.04,0000.38,0000.14,0000.51,0000.34,0000.21,18.8,25.0,07.8,05.3,0678.6,31.0
2021-08-18T09:26:00Z,00000200,00000000,0001.24,0000.88,0000.27,0000.08,0000.08,0000.17,-000.26,0000.20,0000.38,18.8,25.0,07.9,05.4,0678.6,31.0
2021-08-18T09:27:00Z,00000200,00000000,0000.85,0000.74,0000.34,0000.14,0000.19,0000.05,0000.39,0000.08,0000.11,18.8,25.0,08.0,05.5,0678.6,30.9
2021-08-18T09:28:00Z,00000200,00000000,0001.15,0000.81,-000.08,0000.38,0000.08,0000.13,0000.51,0000.10,-000.06,18.8,25.0,08.1,05.6,0678.6,30.9
2021-08-18T09:29:00Z,00000200,00000000,0000.61,0000.89,0000.11,0000.31,0000.02,0000.19,0000.11,0000.49,0000.14,18.8,25.0,08.2,05.6,0678.6,30.9
2021-08-18T09:30:00Z,00000200,00000000,0000.17,0000.46,0000.17,0000.14,0000.09,0000.12,0000.23,0000.68,0000.39,18.8,25.0,08.2,05.7,0678.6,30.9
2021-08-18T09:31:00Z,00000200,00000000,0001.22,0001.00,0000.29,-000.21,0000.24,0000.62,0000.33,-000.26,0000.08,18.9,25.0,08.2,05.7,0678.6,30.9
2021-08-18T09:32:00Z,00000200,00000000,0001.19,0000.28,0000.70,-000.57,-000.29,0000.07,-000.00,0000.07,0000.19,18.9,25.0,08.3,05.7,0678.6,30.9
2021-08-18T09:33:00Z,00000200,00000000,0000.44,0000.56,0000.40,-000.01,0000.29,0000.16,0000.39,0000.44,0000.02,18.9,25.0,08.3,05.7,0678.6,30.9
2021-08-18T09:34:00Z,00000200,00000000,0001.00,0000.62,0000.12,-000.18,0000.18,0000.21,-000.03,0000.11,0000.07,18.9,25.0,08.4,05.8,0678.6,30.9
2021-08-18T09:35:00Z,00000200,00000000,0000.89,0000.86,-000.04,0000.45,0000.21,-000.14,0000.42,-000.11,0000.27,18.9,25.0,08.5,05.8,0678.6,30.9
2021-08-18T09:36:00Z,00000200,00000000,0000.19,0000.51,0000.45,-000.11,0000.18,-000.21,0000.15,0000.15,-000.19,18.9,25.0,08.4,05.8,0678.6,30.9
2021-08-18T09:37:00Z,00000200,00000000,0000.69,0000.61,0000.30,0000.04,0000.08,0000.07,0000.16,0000.56,0000.47,18.9,25.0,08.5,05.8,0678.6,30.9
2021-08-18T09:38:00Z,00000200,00000000,0000.58,0000.38,0000.18,-000.24,0000.26,-000.20,0000.04,0000.06,-000.12,18.9,25.0,08.5,05.8,0678.7,30.9
2021-08-18T09:39:00Z,00000200,00000000,0000.49,0000.65,0000.25,0000.15,0000.27,0000.17,0000.29,-000.20,0000.27,18.9,25.0,08.8,06.0,0678.7,30.9
2021-08-18T09:40:00Z,00000200,00000000,0001.09,0000.75,0000.05,0000.28,-000.02,0000.04,0000.13,0000.22,0000.03,18.9,25.0,08.8,06.1,0678.7,30.9
2021-08-18T09:41:00Z,00000200,00000000,0000.79,0000.54,0000.51,0000.16,0000.12,0000.14,0000.28,0000.45,0000.28,18.9,25.0,09.0,06.2,0678.7,31.0
2021-08-18T09:42:00Z,00000200,00000000,0001.51,0000.42,0000.25,-000.03,0000.16,0000.39,0000.28,0000.34,0000.23,18.9,25.0,09.0,06.2,0678.7,30.9
2021-08-18T09:43:00Z,00000200,00000000,0001.61,0000.45,0000.03,-000.13,0000.35,0000.07,0000.15,0000.11,-000.06,18.9,25.0,09.1,06.2,0678.7,31.0
2021-08-18T09:44:00Z,00000200,00000000,0001.89,0000.34,0000.21,0000.49,0000.20,0000.28,0000.25,-000.18,-000.18,18.9,25.0,09.2,06.3,0678.7,31.0
2021-08-18T09:45:00Z,00000200,00000000,0001.58,0000.82,0000.44,0000.47,0000.17,0000.61,-000.04,0000.24,0000.18,18.9,25.0,09.2,06.3,0678.7,30.9
2021-08-18T09:46:00Z,00000200,00000000,0000.87,0000.86,-000.03,-000.29,0000.18,-000.08,0000.13,0000.12,-000.03,18.9,25.1,09.2,06.3,0678.7,31.0
2021-08-18T09:47:00Z,00000200,00000000,0001.22,0000.39,0000.38,-000.30,0000.06,0000.05,0000.24,0000.19,0000.27,18.9,25.0,09.2,06.3,0678.7,31.0
2021-08-18T09:48:00Z,00000200,00000000,0000.15,0000.36,0000.11,-000.23,0000.18,-000.04,-000.03,0000.23,0000.29,19.0,25.0,09.3,06.4,0678.7,31.0
2021-08-18T09:49:00Z,00000200,00000000,0001.50,0000.40,0000.02,-000.16,-000.19,0000.13,0000.34,-000.22,0000.06,18.9,25.0,09.4,06.5,0678.7,30.9
2021-08-18T09:50:00Z,00000200,00000000,0001.23,0000.64,0000.36,-000.09,0000.31,0000.02,0000.01,0000.52,0000.05,19.0,25.1,09.5,06.5,0678.7,31.0
2021-08-18T09:51:00Z,00000200,00000000,0000.98,0000.57,0000.21,0000.28,-000.25,0000.01,0000.03,-000.28,-000.23,19.0,25.0,09.4,06.5,0678.7,31.0
2021-08-18T09:52:00Z,00000200,00000000,0001.16,0000.44,0000.13,-000.14,0000.25,0000.17,0000.05,0000.30,0000.10,19.0,25.0,09.4,06.5,0678.7,31.0
2021-08-18T09:53:00Z,00000200,00000000,-000.11,0000.63,0000.43,0000.40,-000.28,0000.05,0000.05,0000.25,0000.45,19.0,25.1,09.4,06.5,0678.7,30.9
2021-08-18T09:54:00Z,00000200,00000000,0000.95,0000.22,0000.26,0000.44,-000.10,0000.10,0000.31,-000.29,0000.03,19.0,25.1,09.5,06.5,0678.7,31.0
2021-08-18T09:55:00Z,00000200,00000000,0000.26,0000.74,-000.00,0000.55,0000.20,0000.06,0000.36,0000.35,0000.15,19.0,25.1,09.5,06.5,0678.7,31.0
2021-08-18T09:56:00Z,00000200,00000000,0000.58,0000.36,-000.13,0000.58,0000.10,-000.13,0000.06,0000.22,0000.01,19.0,25.1,09.4,06.5,0678.7,30.9
2021-08-18T09:57:00Z,00000200,40000000,,,,,,,-000.53,-000.29,-000.32,19.0,25.1,09.4,06.5,0678.7,31.0
2021-08-18T09:58:00Z,00000200,60000000,,,,,,,0000.29,0000.17,0000.21,18.8,25.2,09.2,06.2,0677.7,31.0
2021-08-18T09:59:00Z,00000200,20000000,,,,,,,0000.43,0000.06,0000.36,18.8,25.3,09.4,06.3,0677.8,31.0
